Weather History for Dallas/Ft Worth, TX

Change the Weather History Date:

Thursday, July 11, 2013

  Actual Average Record
Temperature  
Mean Temperature 91 °F 85 °F  
Max Temperature 102 °F 95 °F 107 °F (1980)
Min Temperature 80 °F 75 °F 59 °F (1905)
Degree Days  
Heating Degree Days 0 0  
Month to date heating degree days 0 0  
Since 1 June heating degree days 0 0  
Since 1 July heating degree days 0 0  
Cooling Degree Days 26 20  
Month to date cooling degree days 217 215  
Year to date cooling degree days 1144 1128  
Since 1 June cooling degree days 755 706  
Growing Degree Days 42 (Base 50)    
Moisture  
Dew Point 67 °F    
Average Humidity 46    
Maximum Humidity 65    
Minimum Humidity 27    
Precipitation  
Precipitation T in 0.08 in 2.10 in (1973)
Month to date precipitation T 0.98  
Year to date precipitation 15.30 21.02  
Sea Level Pressure  
Sea Level Pressure 29.90 in    
Wind  
Wind Speed 8 mph (South)    
Max Wind Speed 29 mph    
Max Gust Speed 34 mph    
Visibility 10 miles    
Events Rain , Thunderstorm    
T = Trace of Precipitation, MM = Missing Value Source: NWS Daily Summary

Daily Weather History Graph

Daily Weather History Graph

Search for Another Location

Airport:

Trip Planner

Search our weather history database for the weather conditions in past years. The results will help you decide how hot, cold, wet, or windy it might be!

Date:

Astronomy

Jul. 11, 2013 Rise Set
Actual Time 6:28 AM CDT 8:38 PM CDT
Civil Twilight 6:00 AM CDT 9:06 PM CDT
Nautical Twilight 5:25 AM CDT 9:41 PM CDT
Astronomical Twilight 4:48 AM CDT 10:18 PM CDT
Moon 9:35 AM CDT (7/11) 10:34 PM CDT (7/11)
Length of Visible Light 15h 06m
Length of Day
14h 10m
Waxing Crescent, 11% of the Moon is Illuminated
Jul 11
Waxing Crescent
Jul 15
First Quarter
Jul 22
Full
Jul 29
Last Quarter
Aug 6
New

Hourly Weather History & Observations

Time (CDT) Temp. Heat Index Dew Point Humidity Pressure Visibility Wind Dir Wind Speed Gust Speed Precip Events Conditions
12:53 AM 88.0 °F 88.4 °F 62.1 °F 42% 29.92 in 10.0 mi South 8.1 mph - N/A   Mostly Cloudy
1:53 AM 86.0 °F 86.8 °F 63.0 °F 46% 29.93 in 10.0 mi South 9.2 mph - N/A   Mostly Cloudy
2:53 AM 86.0 °F 87.3 °F 64.0 °F 48% 29.93 in 10.0 mi South 11.5 mph - N/A   Mostly Cloudy
3:53 AM 84.0 °F 86.3 °F 66.0 °F 55% 29.92 in 10.0 mi SSW 9.2 mph - N/A   Scattered Clouds
4:53 AM 82.9 °F 85.8 °F 68.0 °F 60% 29.92 in 10.0 mi SSW 9.2 mph - N/A   Mostly Cloudy
5:53 AM 82.0 °F 85.5 °F 69.1 °F 65% 29.91 in 10.0 mi SSW 8.1 mph - N/A   Mostly Cloudy
6:53 AM 82.9 °F 86.5 °F 69.1 °F 63% 29.92 in 10.0 mi SSW 11.5 mph - N/A   Mostly Cloudy
7:53 AM 84.9 °F 88.8 °F 69.1 °F 59% 29.93 in 10.0 mi SSW 12.7 mph - N/A   Mostly Cloudy
8:53 AM 87.1 °F 91.3 °F 69.1 °F 55% 29.94 in 10.0 mi SW 12.7 mph - N/A   Mostly Cloudy
9:53 AM 90.0 °F 93.6 °F 68.0 °F 48% 29.94 in 10.0 mi SW 12.7 mph - N/A   Mostly Cloudy
10:53 AM 93.0 °F 97.4 °F 68.0 °F 44% 29.94 in 10.0 mi WSW 9.2 mph - N/A   Mostly Cloudy
11:53 AM 95.0 °F 99.0 °F 66.9 °F 40% 29.94 in 10.0 mi SW 6.9 mph - N/A   Mostly Cloudy
12:53 PM 98.1 °F 100.7 °F 64.0 °F 33% 29.92 in 10.0 mi Calm Calm - N/A   Mostly Cloudy
1:53 PM 98.1 °F 99.6 °F 63.0 °F 31% 29.91 in 10.0 mi Calm Calm - N/A   Mostly Cloudy
2:53 PM 102.0 °F 104.6 °F 63.0 °F 28% 29.87 in 10.0 mi Variable 4.6 mph - N/A   Mostly Cloudy
3:53 PM 97.0 °F 99.3 °F 64.0 °F 34% 29.87 in 10.0 mi NE 9.2 mph - N/A   Mostly Cloudy
4:26 PM 98.1 °F 99.6 °F 63.0 °F 31% 29.89 in 10.0 mi ENE 6.9 mph - N/A Thunderstorm Thunderstorm
4:46 PM 97.0 °F 100.4 °F 66.0 °F 36% 29.89 in 10.0 mi South 11.5 mph - N/A   Mostly Cloudy
4:53 PM 97.0 °F 99.9 °F 64.9 °F 35% 29.86 in 10.0 mi South 9.2 mph - N/A   Mostly Cloudy
5:53 PM 99.0 °F 102.3 °F 64.9 °F 33% 29.84 in 10.0 mi South 12.7 mph - N/A   Mostly Cloudy
6:10 PM 93.0 °F 97.4 °F 68.0 °F 44% 29.90 in 10.0 mi NE 28.8 mph - N/A Thunderstorm Thunderstorm
6:36 PM 87.1 °F 92.0 °F 70.0 °F 57% 29.90 in 10.0 mi SE 15.0 mph 25.3 mph N/A Thunderstorm Thunderstorm
6:50 PM 84.2 °F 90.9 °F 73.4 °F 70% 29.89 in 10.0 mi ESE 11.5 mph - 0.00 in Rain Light Rain
6:53 PM 84.9 °F 90.7 °F 72.0 °F 65% 29.86 in 10.0 mi SE 10.4 mph - 0.00 in Rain Light Rain
7:53 PM 87.1 °F 89.9 °F 66.9 °F 51% 29.89 in 10.0 mi ESE 6.9 mph - 0.00 in   Mostly Cloudy
8:53 PM 84.9 °F 87.6 °F 66.9 °F 55% 29.89 in 10.0 mi SSE 6.9 mph - N/A   Mostly Cloudy
9:53 PM 82.9 °F 85.8 °F 68.0 °F 60% 29.87 in 10.0 mi SE 4.6 mph - N/A   Mostly Cloudy
10:53 PM 82.9 °F 85.8 °F 68.0 °F 60% 29.89 in 10.0 mi SE 6.9 mph - N/A   Scattered Clouds
11:53 PM 82.0 °F 85.5 °F 69.1 °F 65% 29.90 in 10.0 mi SE 5.8 mph - N/A   Mostly Cloudy